Time,TemperatureF,DewpointF,PressureIn,WindDirection,WindDirectionDegrees,WindSpeedMPH,WindSpeedGustMPH,Humidity,HourlyPrecipIn,Conditions,Clouds,dailyrainin,SoftwareType,DateUTC
2013-03-16 00:02:00,66.0,43.0,-100.00,WNW,290,9.0,13.0,44,-99.99,,,-99.99,,2013-03-16 05:02:00,
2013-03-16 00:12:00,65.0,43.0,-100.00,West,280,10.0,12.0,45,-99.99,,,-99.99,,2013-03-16 05:12:00,
2013-03-16 01:02:00,58.0,40.0,-100.00,North,0,12.0,16.0,50,-99.99,,,-99.99,,2013-03-16 06:02:00,
2013-03-16 01:12:00,57.0,40.0,-100.00,North,355,11.0,16.0,53,-99.99,,,-99.99,,2013-03-16 06:12:00,
2013-03-16 01:32:00,56.0,41.0,-100.00,NNE,15,11.0,15.0,58,-99.99,,,-99.99,,2013-03-16 06:32:00,
2013-03-16 01:42:00,55.0,42.0,-100.00,North,5,10.0,16.0,61,-99.99,,,-99.99,,2013-03-16 06:42:00,
2013-03-16 02:02:00,53.0,43.0,-100.00,North,0,16.0,23.0,67,-99.99,,,-99.99,,2013-03-16 07:02:00,
2013-03-16 02:12:00,53.0,43.0,-100.00,North,5,16.0,29.0,70,-99.99,,,-99.99,,2013-03-16 07:12:00,
2013-03-16 02:32:00,51.0,44.0,-100.00,NNE,15,14.0,28.0,77,-99.99,,,-99.99,,2013-03-16 07:32:00,
2013-03-16 02:42:00,51.0,44.0,-100.00,NNE,15,14.0,28.0,77,-99.99,,,-99.99,,2013-03-16 07:42:00,
2013-03-16 03:02:00,49.0,43.0,-100.00,North,5,14.0,22.0,79,-99.99,,,-99.99,,2013-03-16 08:02:00,
2013-03-16 03:12:00,48.0,42.0,-100.00,NNE,15,16.0,24.0,79,-99.99,,,-99.99,,2013-03-16 08:12:00,
2013-03-16 03:42:00,47.0,42.0,-100.00,North,10,15.0,24.0,82,-99.99,,,-99.99,,2013-03-16 08:42:00,
2013-03-16 04:02:00,46.0,41.0,-100.00,North,10,13.0,20.0,83,-99.99,,,-99.99,,2013-03-16 09:02:00,
2013-03-16 04:12:00,45.0,41.0,-100.00,NNE,15,16.0,22.0,85,-99.99,,,-99.99,,2013-03-16 09:12:00,
2013-03-16 04:33:00,45.0,41.0,-100.00,North,355,12.0,17.0,87,-99.99,,,-99.99,,2013-03-16 09:33:00,
2013-03-16 04:42:00,44.0,41.0,-100.00,North,0,14.0,17.0,89,-99.99,,,-99.99,,2013-03-16 09:42:00,
2013-03-16 05:32:00,41.0,39.0,-100.00,North,0,18.0,24.0,91,-99.99,,,-99.99,,2013-03-16 10:32:00,
2013-03-16 05:42:00,40.0,38.0,-100.00,North,0,11.0,24.0,93,-99.99,,,-99.99,,2013-03-16 10:42:00,
2013-03-16 06:03:00,40.0,39.0,-100.00,NNE,15,16.0,29.0,95,-99.99,,,-99.99,,2013-03-16 11:03:00,
2013-03-16 06:12:00,40.0,38.0,-100.00,North,355,14.0,26.0,95,-99.99,,,-99.99,,2013-03-16 11:12:00,
2013-03-16 06:32:00,40.0,38.0,-100.00,North,5,14.0,20.0,95,-99.99,,,-99.99,,2013-03-16 11:32:00,
2013-03-16 07:32:00,40.0,38.0,-100.00,North,10,14.0,27.0,94,-99.99,,,-99.99,,2013-03-16 12:32:00,
2013-03-16 07:42:00,40.0,38.0,-100.00,NNE,20,15.0,24.0,94,-99.99,,,-99.99,,2013-03-16 12:42:00,
2013-03-16 08:02:00,40.0,38.0,-100.00,NNE,15,16.0,26.0,93,-99.99,,,-99.99,,2013-03-16 13:02:00,
2013-03-16 08:12:00,40.0,38.0,-100.00,North,5,16.0,24.0,93,-99.99,,,-99.99,,2013-03-16 13:12:00,
2013-03-16 08:32:00,39.0,38.0,-100.00,North,0,18.0,29.0,93,-99.99,,,-99.99,,2013-03-16 13:32:00,
2013-03-16 08:42:00,39.0,38.0,-100.00,NNE,15,18.0,27.0,93,-99.99,,,-99.99,,2013-03-16 13:42:00,
2013-03-16 09:02:00,39.0,37.0,-100.00,NNE,25,17.0,29.0,93,-99.99,,,-99.99,,2013-03-16 14:02:00,
2013-03-16 09:12:00,39.0,37.0,-100.00,NNE,20,21.0,32.0,93,-99.99,,,-99.99,,2013-03-16 14:12:00,
2013-03-16 09:32:00,39.0,37.0,-100.00,NNE,20,21.0,32.0,93,-99.99,,,-99.99,,2013-03-16 14:32:00,
2013-03-16 09:42:00,39.0,37.0,-100.00,NNE,30,15.0,26.0,93,-99.99,,,-99.99,,2013-03-16 14:42:00,
2013-03-16 10:03:00,39.0,37.0,-100.00,NNE,20,17.0,29.0,93,-99.99,,,-99.99,,2013-03-16 15:03:00,
2013-03-16 10:12:00,39.0,37.0,-100.00,NNE,30,16.0,25.0,92,-99.99,,,-99.99,,2013-03-16 15:12:00,
2013-03-16 10:33:00,39.0,37.0,-100.00,NNE,25,15.0,23.0,92,-99.99,,,-99.99,,2013-03-16 15:33:00,
2013-03-16 10:43:00,39.0,37.0,-100.00,NNE,25,16.0,24.0,92,-99.99,,,-99.99,,2013-03-16 15:43:00,
2013-03-16 11:03:00,38.0,36.0,-100.00,NNE,20,14.0,26.0,92,-99.99,,,-99.99,,2013-03-16 16:03:00,
2013-03-16 11:12:00,39.0,37.0,-100.00,NNE,20,14.0,23.0,92,-99.99,,,-99.99,,2013-03-16 16:12:00,
2013-03-16 11:33:00,39.0,36.0,-100.00,NNE,15,16.0,22.0,89,-99.99,,,-99.99,,2013-03-16 16:33:00,
2013-03-16 11:42:00,39.0,36.0,-100.00,NNE,15,18.0,29.0,87,-99.99,,,-99.99,,2013-03-16 16:42:00,
2013-03-16 12:03:00,40.0,35.0,-100.00,NNE,20,15.0,27.0,84,-99.99,,,-99.99,,2013-03-16 17:03:00,
2013-03-16 12:13:00,40.0,35.0,-100.00,NNE,15,16.0,21.0,83,-99.99,,,-99.99,,2013-03-16 17:13:00,
2013-03-16 12:42:00,41.0,35.0,-100.00,North,0,9.0,17.0,80,-99.99,,,-99.99,,2013-03-16 17:42:00,
2013-03-16 13:02:00,41.0,35.0,-100.00,NE,35,13.0,21.0,77,-99.99,,,-99.99,,2013-03-16 18:02:00,
2013-03-16 13:13:00,41.0,35.0,-100.00,NE,35,13.0,21.0,77,-99.99,,,-99.99,,2013-03-16 18:13:00,
2013-03-16 13:33:00,41.0,34.0,-100.00,NNE,20,9.0,17.0,76,-99.99,,,-99.99,,2013-03-16 18:33:00,
2013-03-16 13:43:00,41.0,34.0,-100.00,NNE,20,12.0,21.0,76,-99.99,,,-99.99,,2013-03-16 18:43:00,
2013-03-16 14:02:00,40.0,34.0,-100.00,NNE,20,18.0,23.0,76,-99.99,,,-99.99,,2013-03-16 19:02:00,
2013-03-16 14:12:00,41.0,34.0,-100.00,NNE,25,9.0,21.0,76,-99.99,,,-99.99,,2013-03-16 19:12:00,
2013-03-16 14:32:00,40.0,33.0,-100.00,NNE,20,13.0,21.0,76,-99.99,,,-99.99,,2013-03-16 19:32:00,
2013-03-16 14:42:00,41.0,34.0,-100.00,NNE,30,11.0,19.0,76,-99.99,,,-99.99,,2013-03-16 19:42:00,
2013-03-16 15:02:00,42.0,34.0,-100.00,NE,40,11.0,20.0,74,-99.99,,,-99.99,,2013-03-16 20:02:00,
2013-03-16 15:12:00,41.0,33.0,-100.00,NNE,20,14.0,24.0,73,-99.99,,,-99.99,,2013-03-16 20:12:00,
2013-03-16 15:32:00,43.0,34.0,-100.00,NE,35,16.0,24.0,70,-99.99,,,-99.99,,2013-03-16 20:32:00,
2013-03-16 15:42:00,43.0,33.0,-100.00,NNE,20,16.0,24.0,69,-99.99,,,-99.99,,2013-03-16 20:42:00,
2013-03-16 16:02:00,44.0,33.0,-100.00,NE,40,12.0,21.0,65,-99.99,,,-99.99,,2013-03-16 21:02:00,
2013-03-16 16:12:00,44.0,33.0,-100.00,NE,45,11.0,22.0,64,-99.99,,,-99.99,,2013-03-16 21:12:00,
2013-03-16 16:33:00,44.0,32.0,-100.00,NNE,30,16.0,21.0,63,-99.99,,,-99.99,,2013-03-16 21:33:00,
2013-03-16 16:43:00,44.0,32.0,-100.00,NNE,15,15.0,21.0,63,-99.99,,,-99.99,,2013-03-16 21:43:00,
2013-03-16 17:03:00,44.0,32.0,-100.00,NNE,25,10.0,21.0,63,-99.99,,,-99.99,,2013-03-16 22:03:00,
2013-03-16 17:12:00,44.0,32.0,-100.00,NNE,25,11.0,20.0,63,-99.99,,,-99.99,,2013-03-16 22:12:00,
2013-03-16 17:33:00,44.0,32.0,-100.00,NNE,15,14.0,19.0,63,-99.99,,,-99.99,,2013-03-16 22:33:00,
2013-03-16 17:42:00,43.0,32.0,-100.00,NNE,20,13.0,19.0,63,-99.99,,,-99.99,,2013-03-16 22:42:00,
2013-03-16 18:02:00,43.0,31.0,-100.00,NNE,20,10.0,16.0,63,-99.99,,,-99.99,,2013-03-16 23:02:00,
2013-03-16 18:13:00,42.0,31.0,-100.00,NE,35,11.0,16.0,64,-99.99,,,-99.99,,2013-03-16 23:13:00,
2013-03-16 18:33:00,42.0,31.0,-100.00,NNE,20,12.0,18.0,65,-99.99,,,-99.99,,2013-03-16 23:33:00,
2013-03-16 18:42:00,41.0,31.0,-100.00,NE,40,15.0,20.0,66,-99.99,,,-99.99,,2013-03-16 23:42:00,
2013-03-16 19:02:00,41.0,31.0,-100.00,NNE,30,11.0,21.0,67,-99.99,,,-99.99,,2013-03-17 00:02:00,
2013-03-16 19:12:00,40.0,31.0,-100.00,NNE,30,13.0,21.0,68,-99.99,,,-99.99,,2013-03-17 00:12:00,
2013-03-16 19:32:00,40.0,30.0,-100.00,NNE,20,14.0,20.0,69,-99.99,,,-99.99,,2013-03-17 00:32:00,
2013-03-16 19:42:00,39.0,30.0,-100.00,NNE,25,13.0,19.0,69,-99.99,,,-99.99,,2013-03-17 00:42:00,
2013-03-16 20:02:00,39.0,29.0,-100.00,NNE,25,11.0,23.0,69,-99.99,,,-99.99,,2013-03-17 01:02:00,
2013-03-16 20:12:00,39.0,29.0,-100.00,NNE,20,13.0,19.0,69,-99.99,,,-99.99,,2013-03-17 01:12:00,
2013-03-16 20:32:00,39.0,29.0,-100.00,NNE,30,12.0,16.0,69,-99.99,,,-99.99,,2013-03-17 01:32:00,
2013-03-16 20:42:00,39.0,29.0,-100.00,NNE,30,13.0,21.0,69,-99.99,,,-99.99,,2013-03-17 01:42:00,
2013-03-16 21:03:00,39.0,29.0,-100.00,NNE,15,9.0,16.0,69,-99.99,,,-99.99,,2013-03-17 02:03:00,
2013-03-16 21:13:00,39.0,29.0,-100.00,NNE,15,9.0,16.0,69,-99.99,,,-99.99,,2013-03-17 02:13:00,
2013-03-16 22:02:00,38.0,29.0,-100.00,NNE,20,11.0,17.0,69,-99.99,,,-99.99,,2013-03-17 03:02:00,
2013-03-16 22:12:00,37.0,28.0,-100.00,NNE,15,11.0,21.0,69,-99.99,,,-99.99,,2013-03-17 03:12:00,
2013-03-16 23:03:00,36.0,28.0,-100.00,NNE,15,11.0,20.0,72,-99.99,,,-99.99,,2013-03-17 04:03:00,
2013-03-16 23:13:00,35.0,27.0,-100.00,North,5,16.0,22.0,73,-99.99,,,-99.99,,2013-03-17 04:13:00,
2013-03-16 23:23:00,35.0,27.0,-100.00,North,5,16.0,22.0,73,-99.99,,,-99.99,,2013-03-17 04:23:00,
2013-03-16 23:32:00,35.0,27.0,-100.00,North,5,16.0,22.0,73,-99.99,,,-99.99,,2013-03-17 04:32:00,
2013-03-16 23:43:00,35.0,27.0,-100.00,NNE,15,14.0,27.0,73,-99.99,,,-99.99,,2013-03-17 04:43:00,